Change the Weather History Date:

Thursday, February 20, 2014

  Actual Average Record
Temperature  
Mean Temperature 46 °F 44 °F  
Max Temperature 50 °F 50 °F 62 °F (1977)
Min Temperature 42 °F 37 °F 25 °F (1955)
Degree Days  
Heating Degree Days 19 21  
Month to date heating degree days 482 438  
Since 1 July heating degree days 2914 3087  
Cooling Degree Days 0 0  
Month to date cooling degree days 0 0  
Year to date cooling degree days 0 0  
Moisture  
Dew Point 39 °F    
Average Humidity 78    
Maximum Humidity 89    
Minimum Humidity 66    
Precipitation  
Precipitation 0.12 in 0.12 in 0.74 in (1984)
Month to date precipitation 5.14 2.53  
Year to date precipitation 8.84 8.10  
Snow  
Snow 0.00 in - 1.40 in (1993)
Month to date snowfall 2.9  
Since 1 July snowfall 4.0  
Snow Depth 0.00 in    
Sea Level Pressure  
Sea Level Pressure 30.13 in    
Wind  
Wind Speed 15 mph (SSW)    
Max Wind Speed 30 mph    
Max Gust Speed 38 mph    
Visibility 10 miles    
Events Rain    
T = Trace of Precipitation, MM = Missing Value Source: NWS Daily Summary

Daily Weather History Graph

Daily Weather History Graph

Search for Another Location

Airport or City:

Trip Planner

Search our weather history database for the weather conditions in past years. The results will help you decide how hot, cold, wet, or windy it might be!

Date:

Astronomy

Feb. 20, 2014 Rise Set
Actual Time 7:05 AM PST 5:40 PM PST
Civil Twilight 6:34 AM PST 6:12 PM PST
Nautical Twilight 5:58 AM PST 6:47 PM PST
Astronomical Twilight 5:23 AM PST 7:23 PM PST
Moon No Moon Rise 9:27 AM PST (2/20)
Length of Visible Light 11h 37m
Length of Day
10h 35m
Waning Gibbous, 70% of the Moon is Illuminated
Feb 20
Waning Gibbous
Feb 22
Last Quarter
Mar 1
New
Mar 8
First Quarter
Mar 16
Full

Hourly Weather History & Observations

Time (PST) Temp. Windchill Dew Point Humidity Pressure Visibility Wind Dir Wind Speed Gust Speed Precip Events Conditions
12:53 AM 43.0 °F 34.2 °F 37.9 °F 82% 30.05 in 10.0 mi South 20.7 mph 27.6 mph 0.03 in Rain Light Rain
1:53 AM 43.0 °F 36.0 °F 39.0 °F 86% 30.07 in 6.0 mi South 13.8 mph 23.0 mph 0.06 in Rain Light Rain
2:02 AM 42.8 °F 36.2 °F 39.2 °F 87% 30.04 in 5.0 mi South 12.7 mph - 0.02 in Rain Light Rain
2:25 AM 42.8 °F 35.4 °F 39.2 °F 87% 30.03 in 10.0 mi South 15.0 mph 21.9 mph 0.03 in   Overcast
2:53 AM 44.1 °F 36.5 °F 39.9 °F 85% 30.06 in 10.0 mi South 17.3 mph - 0.03 in   Overcast
3:53 AM 45.0 °F 36.9 °F 41.0 °F 86% 30.04 in 10.0 mi South 20.7 mph 28.8 mph N/A   Overcast
4:53 AM 45.0 °F 37.6 °F 41.0 °F 86% 30.05 in 10.0 mi SSW 17.3 mph 26.5 mph N/A   Mostly Cloudy
5:26 AM 44.6 °F 36.9 °F 42.8 °F 93% 30.02 in 10.0 mi SSW 18.4 mph 26.5 mph N/A   Overcast
5:53 AM 46.0 °F 38.5 °F 42.1 °F 86% 30.05 in 10.0 mi SSW 19.6 mph 29.9 mph N/A   Overcast
6:32 AM 46.4 °F 39.2 °F 42.8 °F 87% 30.04 in 10.0 mi SSW 18.4 mph 27.6 mph N/A   Overcast
6:53 AM 46.0 °F 39.3 °F 42.1 °F 86% 30.06 in 10.0 mi SSW 16.1 mph 23.0 mph N/A   Overcast
7:27 AM 46.4 °F 38.3 °F 41.0 °F 81% 30.03 in 10.0 mi SSW 23.0 mph 38.0 mph N/A   Overcast
7:53 AM 46.0 °F 37.8 °F 39.9 °F 79% 30.06 in 10.0 mi SSW 23.0 mph 38.0 mph N/A   Overcast
8:53 AM 46.9 °F - 39.9 °F 77% 30.10 in 10.0 mi SW 19.6 mph 31.1 mph N/A   Mostly Cloudy
9:53 AM 46.9 °F - 37.9 °F 71% 30.13 in 10.0 mi SSW 16.1 mph - N/A   Mostly Cloudy
10:53 AM 46.9 °F - 39.0 °F 74% 30.17 in 10.0 mi West 10.4 mph - N/A   Mostly Cloudy
11:53 AM 48.0 °F - 37.0 °F 66% 30.17 in 10.0 mi SW 12.7 mph - N/A   Mostly Cloudy
12:53 PM 48.9 °F - 37.9 °F 66% 30.17 in 10.0 mi South 9.2 mph 18.4 mph N/A   Mostly Cloudy
1:53 PM 48.0 °F - 39.0 °F 71% 30.17 in 10.0 mi SW 11.5 mph 24.2 mph N/A   Mostly Cloudy
2:53 PM 48.9 °F - 39.0 °F 69% 30.17 in 10.0 mi SSW 16.1 mph 24.2 mph N/A   Mostly Cloudy
3:53 PM 48.0 °F - 39.0 °F 71% 30.17 in 10.0 mi SSW 18.4 mph - N/A   Mostly Cloudy
4:53 PM 46.9 °F - 39.0 °F 74% 30.18 in 10.0 mi SSW 19.6 mph 26.5 mph N/A   Mostly Cloudy
5:53 PM 46.0 °F 39.0 °F 39.9 °F 79% 30.17 in 10.0 mi SSW 17.3 mph 25.3 mph N/A   Mostly Cloudy
6:22 PM 46.4 °F 40.7 °F 39.2 °F 76% 30.16 in 10.0 mi SW 12.7 mph - N/A   Mostly Cloudy
6:53 PM 46.0 °F 39.9 °F 39.0 °F 76% 30.21 in 10.0 mi SW 13.8 mph 19.6 mph N/A   Mostly Cloudy
7:53 PM 45.0 °F 40.1 °F 37.9 °F 76% 30.22 in 10.0 mi SW 9.2 mph - N/A   Mostly Cloudy
8:53 PM 45.0 °F 38.5 °F 37.0 °F 74% 30.23 in 10.0 mi SW 13.8 mph - N/A   Mostly Cloudy
9:43 PM 42.8 °F 36.6 °F 37.4 °F 81% 30.21 in 10.0 mi SSW 11.5 mph - N/A   Scattered Clouds
9:53 PM 43.0 °F 36.8 °F 37.0 °F 80% 30.24 in 10.0 mi SSW 11.5 mph 20.7 mph N/A   Scattered Clouds
10:53 PM 43.0 °F 36.8 °F 36.0 °F 76% 30.24 in 10.0 mi SSW 11.5 mph - N/A   Scattered Clouds
11:26 PM 42.8 °F 36.6 °F 37.4 °F 81% 30.21 in 10.0 mi SSW 11.5 mph - N/A   Mostly Cloudy
11:53 PM 43.0 °F 37.2 °F 37.9 °F 82% 30.24 in 10.0 mi South 10.4 mph - N/A   Overcast